[[{"header":{"parameterUnit":"m.s-1","parameterCategory":1,"la1":30.2991,"la2":30.254,"lo1":-89.0895,"lo2":-89.0444,"dx":0.0017,"dy":0.0017,"nx":28,"ny":28,"refTime":"2022-11-03T21:00:00:Z","depth":0,"parameterNumber":2,"parameterNumberName":"U-component_of_WINDS"},"data":[0,0,0,0,0,0,0,0,0,0,0,0,0,0,0,0,0,0,0,0,0,0,0,0,0,0,0,0,0,0,0,0,0,0,0,0,0,0,0,0,0,0,0,0,0,0,0,0,0,0,0,0,0,0,0,0,0,0,-1.4588,-1.4588,0,-1.4539,-1.4539,-1.4538,-1.451,-1.451,-1.4509,-1.4509,-1.446,-1.4459,-1.4457,0,0,0,0,0,0,0,0,0,0,0,0,0,-1.4662,-1.4661,-1.4589,-1.4588,-1.4587,-1.4539,-1.4539,-1.4538,-1.451,-1.451,-1.4509,-1.4509,-1.446,-1.4459,-1.4457,0,0,0,0,0,0,0,0,0,0,0,0,0,-1.4623,-1.466,-1.4589,-1.4567,-1.4565,-1.4539,-1.4539,-1.4538,-1.451,-1.451,-1.4509,-1.4509,-1.4461,-1.4459,-1.4457,-1.4449,0,0,-1.4452,-1.4451,0,0,0,0,0,0,0,0,-1.4625,-1.462,-1.4571,-1.4569,-1.4566,-1.453,-1.4546,-1.4508,-1.451,-1.4531,-1.4509,-1.4509,-1.4484,-1.448,-1.4471,-1.4447,-1.4445,-1.4451,-1.445,-1.445,-1.4449,0,0,0,0,0,0,0,-1.4628,-1.4622,-1.4569,-1.457,-1.4567,-1.4562,-1.4556,-1.4539,-1.4509,-1.4529,-1.4527,-1.4521,-1.4482,-1.4473,-1.447,-1.4444,-1.4451,-1.445,-1.4449,-1.4448,-1.4415,-1.4415,0,0,0,0,0,0,-1.4634,-1.4625,-1.4571,-1.4568,-1.4596,-1.456,-1.4554,-1.4542,-1.4509,-1.4504,-1.4521,-1.452,-1.4476,-1.4472,-1.4468,-1.4458,-1.445,-1.4448,-1.4447,-1.4415,-1.4415,-1.4415,0,0,0,0,0,0,-1.4636,-1.4629,-1.4573,-1.4596,-1.4588,-1.4559,-1.4546,-1.4541,-1.4532,-1.4503,-1.4498,-1.4517,-1.4476,-1.447,-1.4455,-1.4456,-1.4447,-1.4445,-1.4415,-1.4415,-1.4415,-1.4438,0,0,0,0,0,0,-1.4638,-1.463,-1.4625,-1.4596,-1.4587,-1.4559,-1.4546,-1.454,-1.4528,-1.4526,-1.4498,-1.4493,-1.4475,-1.4458,-1.4453,-1.4453,-1.4444,-1.4414,-1.4415,-1.4415,-1.4437,-1.4439,-1.4441,0,0,0,0,0,-1.464,-1.4633,-1.4625,-1.4619,-1.458,-1.4559,-1.4554,-1.4534,-1.4529,-1.4525,-1.4507,-1.4494,-1.4457,-1.4456,-1.4451,-1.4451,-1.4414,-1.4415,-1.4415,-1.4436,-1.4439,-1.4441,0,0,0,0,0,0,-1.4663,-1.4629,-1.462,-1.4602,-1.4584,-1.4554,-1.4548,-1.4537,-1.4519,-1.4518,-1.4494,-1.4488,-1.4475,-1.4461,-1.4461,-1.4443,-1.4434,-1.4434,-1.4452,-1.4455,-1.4457,-1.446,-1.4442,0,0,0,0,0,-1.4666,-1.4651,-1.4622,-1.461,-1.4601,-1.4577,-1.4567,-1.4553,-1.4533,-1.4525,-1.4506,-1.4488,-1.4473,-1.4463,-1.4447,-1.4436,-1.443,-1.4433,-1.4435,-1.4437,-1.4437,-1.4433,-1.4435,-1.4417,-1.4417,-1.4417,0,0,-1.4671,-1.4651,-1.4643,-1.4614,-1.4598,-1.4585,-1.457,-1.4555,-1.4546,-1.4523,-1.4507,-1.4494,-1.4472,-1.4459,-1.4453,-1.4448,-1.4441,-1.4438,-1.4439,-1.4438,-1.4434,-1.4435,-1.4437,-1.4417,-1.4417,-1.4417,0,0,-1.4675,-1.4658,-1.4647,-1.4632,-1.4609,-1.4593,-1.4591,-1.4564,-1.4554,-1.4539,-1.4522,-1.4511,-1.4484,-1.4471,-1.446,-1.4464,-1.4452,-1.446,-1.447,-1.4466,-1.4468,-1.4469,-1.4472,-1.4473,-1.446,-1.446,-1.446,0,-1.4685,-1.4663,-1.4642,-1.463,-1.4619,-1.4599,-1.4589,-1.4576,-1.4549,-1.4543,-1.4537,-1.4506,-1.449,-1.4475,-1.4477,-1.4468,-1.4467,-1.4462,-1.4469,-1.447,-1.4471,-1.4474,-1.4475,-1.4461,-1.4461,-1.4461,-1.4461,0,-1.4678,-1.4663,-1.4657,-1.4633,-1.4621,-1.461,-1.459,-1.4581,-1.457,-1.4555,-1.4542,-1.4523,-1.4504,-1.45,-1.4487,-1.4485,-1.4482,-1.4474,-1.4464,-1.4474,-1.4477,-1.4477,-1.4463,-1.4462,-1.4462,-1.4462,0,0,-1.469,-1.4658,-1.4656,-1.4647,-1.4622,-1.4611,-1.4601,-1.4583,-1.4577,-1.456,-1.4552,-1.4532,-1.4525,-1.4514,-1.45,-1.4497,-1.4505,-1.4489,-1.4489,-1.4494,-1.4503,-1.4511,-1.4512,-1.4497,-1.4497,-1.4498,-1.4506,0,-1.4691,-1.467,-1.4654,-1.464,-1.4628,-1.4612,-1.4603,-1.4588,-1.4576,-1.4565,-1.4552,-1.4539,-1.4529,-1.4523,-1.4519,-1.4505,-1.4507,-1.4504,-1.4491,-1.4491,-1.4497,-1.4513,-1.4519,-1.4528,-1.4506,-1.4506,-1.4507,0,-1.4687,-1.4673,-1.4659,-1.4639,-1.4633,-1.4626,-1.461,-1.46,-1.4584,-1.4576,-1.4565,-1.4552,-1.4543,-1.4536,-1.4524,-1.4522,-1.4517,-1.451,-1.4509,-1.4507,-1.4499,-1.4512,-1.453,-1.4531,-1.4507,-1.4507,-1.4507,0,-1.47,-1.4677,-1.4666,-1.4658,-1.4635,-1.463,-1.462,-1.4604,-1.4596,-1.4584,-1.4579,-1.4565,-1.4557,-1.4548,-1.4533,-1.4529,-1.4524,-1.4514,-1.4518,-1.4519,-1.4517,-1.4517,-1.4535,-1.4513,-1.4513,-1.4513,-1.4513,0,-1.4702,-1.4694,-1.4672,-1.4665,-1.4657,-1.464,-1.4633,-1.4622,-1.4609,-1.4601,-1.4586,-1.458,-1.456,-1.4552,-1.454,-1.4534,-1.453,-1.4525,-1.4522,-1.4526,-1.4527,-1.4522,-1.4521,-1.4513,-1.4513,-1.4513,-1.4513,0,-1.4714,-1.4698,-1.4686,-1.4666,-1.4661,-1.4656,-1.464,-1.4634,-1.4623,-1.4613,-1.461,-1.4592,-1.4583,-1.4567,-1.4552,-1.4545,-1.4541,-1.4535,-1.4546,-1.4544,-1.4549,-1.455,-1.4564,-1.4566,-1.4543,-1.4543,-1.4543,0,-1.4716,-1.471,-1.469,-1.4685,-1.4676,-1.4666,-1.4659,-1.4643,-1.4636,-1.462,-1.4617,-1.4606,-1.4596,-1.4582,-1.4568,-1.4558,-1.4553,-1.4559,-1.4551,-1.4557,-1.4555,-1.4555,-1.4556,-1.4561,-1.4561,-1.4561,-1.4561,0,-1.4722,-1.4716,-1.4705,-1.4694,-1.4686,-1.4676,-1.4665,-1.4661,-1.4644,-1.4637,-1.4627,-1.462,-1.4607,-1.4597,-1.4586,-1.4577,-1.4567,-1.4564,-1.4565,-1.4569,-1.4576,-1.4574,-1.4552,-1.4564,-1.4563,-1.4563,-1.4563,-1.4563,-1.4729,-1.4725,-1.4712,-1.4702,-1.4693,-1.4684,-1.4679,-1.4668,-1.466,-1.4648,-1.4639,-1.4631,-1.462,-1.4603,-1.4596,-1.459,-1.4586,-1.4586,-1.4586,-1.4587,-1.4589,-1.4578,-1.4588,-1.4588,-1.4588,-1.4588,-1.4588,0,-1.4736,-1.4728,-1.4719,-1.4706,-1.4699,-1.4692,-1.4681,-1.4676,-1.4668,-1.4659,-1.4651,-1.4642,-1.4633,-1.4621,-1.4612,-1.4611,-1.4606,-1.4609,-1.4609,-1.4608,-1.4593,-1.4594,-1.4613,-1.4613,-1.4613,-1.4613,-1.4613,-1.4613,-1.4738,-1.4731,-1.4724,-1.4714,-1.4706,-1.4698,-1.4693,-1.4686,-1.4678,-1.4669,-1.4663,-1.4655,-1.4645,-1.4636,-1.463,-1.4626,-1.4624,-1.4629,-1.4625,-1.4611,-1.4608,-1.4606,-1.4607,-1.4628,-1.4628,-1.464,-1.464,-1.464]},{"header":{"parameterUnit":"m.s-1","parameterCategory":1,"la1":30.2991,"la2":30.254,"lo1":-89.0895,"lo2":-89.0444,"dx":0.0017,"dy":0.0017,"nx":28,"ny":28,"refTime":"2022-11-03T21:00:00:Z","depth":0,"parameterNumber":3,"parameterNumberName":"V-component_of_WINDS"},"data":[0,0,0,0,0,0,0,0,0,0,0,0,0,0,0,0,0,0,0,0,0,0,0,0,0,0,0,0,0,0,0,0,0,0,0,0,0,0,0,0,0,0,0,0,0,0,0,0,0,0,0,0,0,0,0,0,0,0,1.796,1.7959,0,1.7935,1.7935,1.7934,1.7976,1.7977,1.7979,1.798,1.7947,1.7945,1.7943,0,0,0,0,0,0,0,0,0,0,0,0,0,1.8036,1.8034,1.796,1.7959,1.7959,1.7935,1.7935,1.7934,1.7976,1.7977,1.7979,1.7981,1.7948,1.7945,1.7942,0,0,0,0,0,0,0,0,0,0,0,0,0,1.8006,1.8034,1.796,1.7977,1.7978,1.7935,1.7935,1.7934,1.7975,1.7977,1.7979,1.7981,1.7948,1.7945,1.7942,1.7879,0,0,1.7932,1.793,0,0,0,0,0,0,0,0,1.8008,1.8003,1.7975,1.7976,1.7977,1.7961,1.795,1.7915,1.7975,1.7976,1.798,1.7983,1.7949,1.7946,1.7936,1.7877,1.7876,1.7932,1.793,1.7928,1.7927,0,0,0,0,0,0,0,1.801,1.8004,1.795,1.7974,1.7976,1.7984,1.7982,1.7943,1.7951,1.7976,1.7979,1.7976,1.795,1.794,1.7936,1.7875,1.7932,1.7929,1.7927,1.7925,1.7763,1.776,0,0,0,0,0,0,1.8011,1.8006,1.795,1.7949,1.7998,1.7981,1.7979,1.7964,1.7951,1.7952,1.7974,1.7978,1.7944,1.794,1.7935,1.786,1.7928,1.7925,1.7923,1.7765,1.7762,1.776,0,0,0,0,0,0,1.8012,1.8005,1.7951,1.7978,1.7972,1.7977,1.796,1.7962,1.7952,1.795,1.7951,1.7962,1.7946,1.794,1.7893,1.7859,1.7924,1.7921,1.7768,1.7764,1.7761,1.7709,0,0,0,0,0,0,1.8014,1.8006,1.7983,1.7978,1.7971,1.7911,1.7958,1.796,1.7947,1.7951,1.7939,1.7939,1.7947,1.7898,1.789,1.7856,1.7918,1.7771,1.7766,1.7762,1.7714,1.7704,1.7696,0,0,0,0,0,1.8017,1.7967,1.7981,1.7974,1.7943,1.791,1.7905,1.7918,1.7944,1.792,1.7919,1.7939,1.7865,1.7893,1.7884,1.7848,1.7773,1.7767,1.7762,1.7718,1.7706,1.7696,0,0,0,0,0,0,1.7965,1.7967,1.7982,1.793,1.792,1.7917,1.7887,1.7905,1.7885,1.7889,1.7904,1.79,1.785,1.7845,1.7876,1.7787,1.7823,1.7816,1.7792,1.7781,1.7772,1.7773,1.7915,0,0,0,0,0,1.7948,1.7924,1.7926,1.7879,1.7874,1.7881,1.7867,1.7878,1.7867,1.7862,1.7857,1.7843,1.7817,1.7799,1.7774,1.7714,1.7711,1.7685,1.7677,1.7669,1.7662,1.7629,1.7618,1.7742,1.7742,1.7743,0,0,1.7912,1.791,1.7893,1.7869,1.7862,1.7834,1.7877,1.7845,1.7824,1.7856,1.7812,1.7809,1.7794,1.774,1.7716,1.7734,1.7628,1.7663,1.7657,1.7654,1.7623,1.7611,1.76,1.7739,1.774,1.774,0,0,1.7832,1.7828,1.779,1.7783,1.7773,1.7779,1.777,1.7764,1.7764,1.7721,1.7745,1.7719,1.7673,1.7662,1.765,1.7568,1.7585,1.7559,1.7512,1.748,1.747,1.7461,1.7431,1.742,1.7552,1.7552,1.7552,0,1.7787,1.7748,1.7767,1.7734,1.7723,1.7754,1.7714,1.7705,1.7687,1.7677,1.7698,1.7643,1.7635,1.7579,1.7559,1.7549,1.7537,1.7559,1.7471,1.7462,1.7454,1.7425,1.7414,1.7549,1.755,1.755,1.755,0,1.7693,1.7666,1.7636,1.7621,1.7606,1.7569,1.7581,1.7563,1.7576,1.7579,1.7534,1.7527,1.7502,1.749,1.75,1.7435,1.7446,1.7469,1.7505,1.7439,1.7412,1.7401,1.7545,1.7546,1.7547,1.7548,0,0,1.7577,1.7575,1.7564,1.7557,1.755,1.7528,1.7493,1.7471,1.7455,1.7442,1.7412,1.7374,1.7395,1.7382,1.7392,1.7364,1.7299,1.739,1.739,1.7372,1.7225,1.7207,1.7194,1.7311,1.7309,1.7308,1.7226,0,1.7497,1.744,1.7456,1.7397,1.7372,1.7402,1.7371,1.7362,1.7364,1.7342,1.7343,1.7316,1.7347,1.7339,1.7313,1.7312,1.7269,1.7318,1.7281,1.7279,1.7282,1.718,1.7161,1.7084,1.7216,1.7214,1.7213,0,1.7395,1.7381,1.7321,1.7319,1.7309,1.7281,1.7263,1.7241,1.7231,1.7235,1.7221,1.7238,1.7201,1.724,1.7189,1.7222,1.7208,1.7205,1.7203,1.7198,1.724,1.7171,1.706,1.7048,1.7196,1.7198,1.7199,0,1.7315,1.7281,1.7241,1.7235,1.7231,1.7211,1.7208,1.7201,1.7188,1.7171,1.7162,1.714,1.7128,1.711,1.7119,1.7147,1.7066,1.7106,1.7066,1.7066,1.7046,1.7047,1.6929,1.7039,1.704,1.704,1.704,0,1.7223,1.7184,1.7205,1.718,1.7138,1.7157,1.7113,1.7114,1.7107,1.7081,1.7106,1.708,1.7095,1.707,1.7077,1.7033,1.7027,1.7028,1.703,1.7025,1.7024,1.7014,1.7019,1.7037,1.7037,1.7038,1.7039,0,1.7126,1.7138,1.7096,1.7098,1.7098,1.7066,1.7066,1.7042,1.7048,1.7014,1.7007,1.7015,1.6987,1.6995,1.6964,1.6969,1.6913,1.6923,1.6917,1.6919,1.6879,1.6882,1.6749,1.6732,1.6855,1.6853,1.6852,0,1.7065,1.7037,1.7036,1.7022,1.7019,1.6995,1.6982,1.7,1.6985,1.6973,1.6949,1.6925,1.6906,1.686,1.686,1.6837,1.6845,1.68,1.6841,1.6837,1.6843,1.6844,1.684,1.6791,1.679,1.6788,1.6788,0,1.6956,1.6964,1.6946,1.693,1.6915,1.6902,1.6892,1.6878,1.6895,1.6877,1.6851,1.6836,1.6806,1.6781,1.676,1.6754,1.6773,1.6775,1.6765,1.6758,1.6756,1.6755,1.6893,1.6777,1.6778,1.6779,1.678,1.678,1.6874,1.6851,1.6847,1.6826,1.6821,1.6811,1.6789,1.6793,1.6772,1.6751,1.6762,1.6731,1.6722,1.6697,1.6689,1.6664,1.6681,1.6665,1.6661,1.6657,1.6651,1.6762,1.666,1.666,1.6661,1.6661,1.6661,0,1.6765,1.6766,1.6746,1.6733,1.6716,1.6739,1.6728,1.6712,1.6685,1.6677,1.6659,1.6628,1.6604,1.6604,1.6581,1.6561,1.6568,1.6554,1.6554,1.6553,1.6638,1.6649,1.6548,1.6548,1.6548,1.6548,1.6548,1.6548,1.6707,1.6668,1.6676,1.6635,1.6635,1.6607,1.6599,1.6589,1.6583,1.6549,1.653,1.6532,1.6526,1.6503,1.6481,1.6482,1.6471,1.6453,1.6456,1.6536,1.6547,1.6557,1.6568,1.6451,1.6451,1.6373,1.6372,1.6372]}]]